| time (UTC) | temp F | wind direction | speed MPH | gust MPH | rain 1hr in | rain 24hr in | rain mn in | humidity % | barometer mb |
| 20260507032137 | 63 | 355 | 10.0 | 20.0 | 0.00 | 0.00 | 0.00 | 84 | 1013.7 |
| 20260507031647 | 63 | 52 | 10.0 | 15.0 | 0.00 | 0.00 | 0.00 | 84 | 1014.0 |
| 20260507031155 | 63 | 355 | 6.0 | 14.0 | 0.00 | 0.00 | 0.00 | 84 | 1014.2 |
| 20260507030642 | 63 | 21 | 9.0 | 14.0 | 0.00 | 0.00 | 0.00 | 84 | 1014.3 |
| 20260507030155 | 63 | 360 | 7.0 | 18.0 | 0.00 | 0.00 | 0.00 | 84 | 1014.3 |
| 20260507025636 | 63 | 351 | 5.0 | 18.0 | 0.00 | 0.00 | 0.00 | 84 | 1014.1 |
| 20260507025216 | 63 | 346 | 8.0 | 19.0 | 0.00 | 0.00 | 0.00 | 84 | 1014.2 |
| 20260507024657 | 63 | 338 | 7.0 | 15.0 | 0.00 | 0.00 | 0.00 | 84 | 1014.1 |
| 20260507024140 | 63 | 5 | 6.0 | 14.0 | 0.00 | 0.00 | 0.00 | 84 | 1014.1 |
| 20260507023653 | 63 | 355 | 6.0 | 14.0 | 0.00 | 0.00 | 0.00 | 84 | 1014.1 |
| 20260507023133 | 63 | 326 | 8.0 | 14.0 | 0.00 | 0.00 | 0.00 | 84 | 1014.0 |
| 20260507022645 | 63 | 344 | 6.0 | 15.0 | 0.00 | 0.00 | 0.00 | 84 | 1014.2 |
| 20260507022218 | 63 | 360 | 6.0 | 15.0 | 0.00 | 0.00 | 0.00 | 84 | 1014.1 |
| 20260507021639 | 63 | 26 | 6.0 | 14.0 | 0.00 | 0.00 | 0.00 | 84 | 1014.0 |
| 20260507021150 | 63 | 22 | 7.0 | 16.0 | 0.00 | 0.00 | 0.00 | 84 | 1013.7 |
| 20260507020632 | 63 | 5 | 10.0 | 20.0 | 0.00 | 0.00 | 0.00 | 84 | 1013.4 |
| 20260507020139 | 63 | 355 | 10.0 | 20.0 | 0.00 | 0.00 | 0.00 | 83 | 1012.9 |
| 20260507015641 | 63 | 355 | 8.0 | 15.0 | 0.00 | 0.00 | 0.00 | 83 | 1012.9 |
| 20260507015131 | 63 | 326 | 8.0 | 19.0 | 0.00 | 0.00 | 0.00 | 83 | 1013.2 |
| 20260507014633 | 63 | 13 | 10.0 | 19.0 | 0.00 | 0.00 | 0.00 | 83 | 1013.2 |
| 20260507014144 | 63 | 336 | 8.0 | 16.0 | 0.00 | 0.00 | 0.00 | 83 | 1013.1 |
| 20260507013656 | 64 | 350 | 9.0 | 16.0 | 0.00 | 0.00 | 0.00 | 83 | 1013.2 |
| 20260507013138 | 64 | 344 | 5.0 | 13.0 | 0.00 | 0.00 | 0.00 | 83 | 1013.2 |
| 20260507012651 | 64 | 355 | 4.0 | 16.0 | 0.00 | 0.00 | 0.00 | 82 | 1013.2 |
| 20260507012129 | 64 | 32 | 6.0 | 16.0 | 0.00 | 0.00 | 0.00 | 82 | 1013.1 |
| 20260507011641 | 64 | 18 | 9.0 | 15.0 | 0.00 | 0.00 | 0.00 | 82 | 1012.6 |
| 20260507011209 | 64 | 332 | 7.0 | 18.0 | 0.00 | 0.00 | 0.00 | 82 | 1012.7 |
| 20260507010629 | 64 | 338 | 10.0 | 19.0 | 0.00 | 0.00 | 0.00 | 82 | 1012.4 |
| 20260507010138 | 64 | 360 | 6.0 | 19.0 | 0.00 | 0.00 | 0.00 | 81 | 1012.4 |
| 20260507005649 | 64 | 30 | 5.0 | 16.0 | 0.00 | 0.00 | 0.00 | 81 | 1012.4 |
| 20260507005148 | 64 | 325 | 9.0 | 16.0 | 0.00 | 0.00 | 0.00 | 81 | 1012.3 |
| 20260507004659 | 65 | 11 | 9.0 | 16.0 | 0.00 | 0.00 | 0.00 | 81 | 1012.3 |
| 20260507004148 | 65 | 9 | 7.0 | 16.0 | 0.00 | 0.00 | 0.00 | 81 | 1012.5 |
| 20260507003631 | 65 | 350 | 7.0 | 20.0 | 0.00 | 0.00 | 0.00 | 81 | 1012.6 |
| 20260507003143 | 65 | 343 | 9.0 | 20.0 | 0.00 | 0.00 | 0.00 | 80 | 1012.4 |
| 20260507002647 | 65 | 31 | 8.0 | 15.0 | 0.00 | 0.00 | 0.00 | 80 | 1012.3 |
| 20260507002200 | 65 | 10 | 10.0 | 15.0 | 0.00 | 0.00 | 0.00 | 80 | 1012.2 |
| 20260507001650 | 66 | 28 | 7.0 | 18.0 | 0.00 | 0.00 | 0.00 | 80 | 1012.2 |
| 20260507001200 | 66 | 18 | 7.0 | 18.0 | 0.00 | 0.00 | 0.00 | 79 | 1012.2 |
| 20260507000642 | 66 | 9 | 8.0 | 18.0 | 0.00 | 0.00 | 0.00 | 79 | 1012.2 |
| 20260507000148 | 67 | 355 | 6.0 | 16.0 | 0.00 | 0.00 | 0.00 | 79 | 1011.9 |
| 20260506235633 | 67 | 355 | 5.0 | 16.0 | 0.00 | 0.00 | 0.00 | 78 | 1012.0 |
| 20260506235148 | 67 | 5 | 5.0 | 16.0 | 0.00 | 0.00 | 0.00 | 78 | 1012.0 |
| 20260506234639 | 67 | 9 | 6.0 | 19.0 | 0.00 | 0.00 | 0.00 | 78 | 1012.0 |
| 20260506234148 | 67 | 5 | 8.0 | 19.0 | 0.00 | 0.00 | 0.00 | 77 | 1011.6 |
| 20260506233649 | 68 | 12 | 5.0 | 21.0 | 0.00 | 0.00 | 0.00 | 77 | 1011.5 |
| 20260506233139 | 68 | 360 | 11.0 | 21.0 | 0.00 | 0.00 | 0.00 | 76 | 1011.4 |
| 20260506232641 | 69 | 351 | 9.0 | 16.0 | 0.00 | 0.00 | 0.00 | 75 | 1011.6 |
| 20260506232131 | 69 | 300 | 6.0 | 15.0 | 0.00 | 0.00 | 0.00 | 76 | 1011.5 |
| 20260506231644 | 69 | 349 | 8.0 | 15.0 | 0.00 | 0.00 | 0.00 | 75 | 1011.6 |
| 20260506231147 | 69 | 5 | 6.0 | 20.0 | 0.00 | 0.00 | 0.00 | 76 | 1011.4 |
| 20260506230657 | 70 | 350 | 8.0 | 18.0 | 0.00 | 0.00 | 0.00 | 74 | 1011.4 |
| 20260506230148 | 71 | 337 | 9.0 | 21.0 | 0.00 | 0.00 | 0.00 | 74 | 1011.2 |
| 20260506225633 | 71 | 10 | 6.0 | 21.0 | 0.00 | 0.00 | 0.00 | 74 | 1011.1 |
| 20260506225139 | 71 | 329 | 7.0 | 22.0 | 0.00 | 0.00 | 0.00 | 73 | 1011.1 |
| 20260506224644 | 72 | 5 | 11.0 | 23.0 | 0.00 | 0.00 | 0.00 | 71 | 1011.2 |
| 20260506224135 | 73 | 5 | 7.0 | 21.0 | 0.00 | 0.00 | 0.00 | 71 | 1011.1 |
| 20260506223633 | 73 | 36 | 8.0 | 20.0 | 0.00 | 0.00 | 0.00 | 72 | 1011.0 |
| 20260506223142 | 74 | 355 | 8.0 | 20.0 | 0.00 | 0.00 | 0.00 | 71 | 1010.9 |
| 20260506222655 | 75 | 338 | 7.0 | 16.0 | 0.00 | 0.00 | 0.00 | 71 | 1010.8 |
| 20260506222136 | 75 | 19 | 9.0 | 19.0 | 0.00 | 0.00 | 0.00 | 70 | 1010.6 |
| 20260506221705 | 75 | 5 | 10.0 | 19.0 | 0.00 | 0.00 | 0.00 | 71 | 1010.6 |
| 20260506221220 | 76 | 12 | 9.0 | 20.0 | 0.00 | 0.00 | 0.00 | 70 | 1010.6 |
| 20260506220639 | 76 | 22 | 10.0 | 20.0 | 0.00 | 0.00 | 0.00 | 70 | 1010.6 |
| 20260506220152 | 76 | 325 | 8.0 | 20.0 | 0.00 | 0.00 | 0.00 | 71 | 1010.5 |
| 20260506215639 | 76 | 360 | 12.0 | 20.0 | 0.00 | 0.00 | 0.00 | 70 | 1010.4 |
| 20260506215151 | 77 | 355 | 12.0 | 19.0 | 0.00 | 0.00 | 0.00 | 70 | 1010.6 |
| 20260506214634 | 77 | 336 | 10.0 | 19.0 | 0.00 | 0.00 | 0.00 | 72 | 1010.6 |
| 20260506214147 | 77 | 31 | 7.0 | 16.0 | 0.00 | 0.00 | 0.00 | 71 | 1010.7 |
| 20260506213720 | 78 | 18 | 8.0 | 16.0 | 0.00 | 0.00 | 0.00 | 71 | 1010.6 |
| 20260506213157 | 78 | 11 | 8.0 | 19.0 | 0.00 | 0.00 | 0.00 | 71 | 1010.6 |
| 20260506212627 | 78 | 40 | 9.0 | 19.0 | 0.00 | 0.00 | 0.00 | 72 | 1010.4 |
| 20260506212138 | 78 | 345 | 9.0 | 19.0 | 0.00 | 0.00 | 0.00 | 71 | 1010.3 |
| 20260506211640 | 78 | 35 | 10.0 | 18.0 | 0.00 | 0.00 | 0.00 | 73 | 1010.3 |
| 20260506211150 | 77 | 32 | 6.0 | 19.0 | 0.00 | 0.00 | 0.00 | 74 | 1010.4 |
| 20260506210703 | 78 | 49 | 9.0 | 16.0 | 0.00 | 0.00 | 0.00 | 73 | 1010.5 |
| 20260506210144 | 78 | 55 | 7.0 | 15.0 | 0.00 | 0.00 | 0.00 | 74 | 1010.6 |
| 20260506205656 | 78 | 59 | 9.0 | 15.0 | 0.00 | 0.00 | 0.00 | 73 | 1010.3 |
| 20260506205146 | 77 | 355 | 10.0 | 15.0 | 0.00 | 0.00 | 0.00 | 76 | 1010.3 |
| 20260506204717 | 76 | 22 | 9.0 | 16.0 | 0.00 | 0.00 | 0.00 | 76 | 1010.5 |
| 20260506204157 | 77 | 5 | 6.0 | 19.0 | 0.00 | 0.00 | 0.00 | 76 | 1010.6 |
| 20260506203648 | 77 | 23 | 8.0 | 20.0 | 0.00 | 0.00 | 0.00 | 75 | 1010.5 |
| 20260506203159 | 78 | 5 | 8.0 | 20.0 | 0.00 | 0.00 | 0.00 | 73 | 1010.5 |
| 20260506202656 | 80 | 30 | 10.0 | 15.0 | 0.00 | 0.00 | 0.00 | 71 | 1010.6 |
| 20260506202126 | 82 | 327 | 3.0 | 13.0 | 0.00 | 0.00 | 0.00 | 76 | 1010.5 |
| 20260506201629 | 82 | 58 | 1.0 | 7.0 | 0.00 | 0.00 | 0.00 | 76 | 1010.3 |
| 20260506201140 | 82 | 53 | 3.0 | 8.0 | 0.00 | 0.00 | 0.00 | 75 | 1010.4 |
| 20260506200651 | 82 | 56 | 4.0 | 8.0 | 0.00 | 0.00 | 0.00 | 73 | 1010.6 |
| 20260506200158 | 83 | 355 | 1.0 | 5.0 | 0.00 | 0.00 | 0.00 | 72 | 1010.6 |
| 20260506195659 | 83 | 66 | 0.0 | 0.0 | 0.00 | 0.00 | 0.00 | 73 | 1010.4 |
| 20260506195150 | 82 | 70 | 0.0 | 2.0 | 0.00 | 0.00 | 0.00 | 72 | 1010.5 |
| 20260506194632 | 82 | 70 | 0.0 | 6.0 | 0.00 | 0.00 | 0.00 | 74 | 1010.4 |
| 20260506194143 | 82 | 71 | 2.0 | 6.0 | 0.00 | 0.00 | 0.00 | 73 | 1010.3 |
| 20260506193652 | 82 | 34 | 0.0 | 4.0 | 0.00 | 0.00 | 0.00 | 72 | 1010.3 |
| 20260506193131 | 82 | 90 | 0.0 | 8.0 | 0.00 | 0.00 | 0.00 | 72 | 1010.3 |
| 20260506192643 | 83 | 60 | 4.0 | 8.0 | 0.00 | 0.00 | 0.00 | 71 | 1010.3 |
| 20260506192152 | 83 | 46 | 0.0 | 6.0 | 0.00 | 0.00 | 0.00 | 72 | 1010.4 |
| 20260506191635 | 82 | 40 | 1.0 | 6.0 | 0.00 | 0.00 | 0.00 | 73 | 1010.6 |
| 20260506191141 | 82 | 34 | 0.0 | 6.0 | 0.00 | 0.00 | 0.00 | 73 | 1010.5 |
| 20260506190639 | 82 | 63 | 3.0 | 6.0 | 0.00 | 0.00 | 0.00 | 74 | 1010.7 |
| 20260506190151 | 83 | 18 | 2.0 | 6.0 | 0.00 | 0.00 | 0.00 | 74 | 1010.6 |
| 20260506185638 | 81 | 55 | 3.0 | 6.0 | 0.00 | 0.00 | 0.00 | 75 | 1010.7 |
| 20260506185141 | 81 | 65 | 3.0 | 8.0 | 0.00 | 0.00 | 0.00 | 76 | 1010.8 |
| 20260506184634 | 81 | 94 | 3.0 | 8.0 | 0.00 | 0.00 | 0.00 | 77 | 1010.8 |
| 20260506184149 | 81 | 130 | 1.0 | 5.0 | 0.00 | 0.00 | 0.00 | 76 | 1010.8 |
| 20260506183631 | 81 | 80 | 0.0 | 7.0 | 0.00 | 0.00 | 0.00 | 74 | 1010.8 |
| 20260506183156 | 81 | 71 | 3.0 | 7.0 | 0.00 | 0.00 | 0.00 | 75 | 1011.0 |
| 20260506182639 | 81 | 83 | 5.0 | 7.0 | 0.00 | 0.00 | 0.00 | 77 | 1011.1 |
| 20260506182150 | 81 | 147 | 5.0 | 9.0 | 0.00 | 0.00 | 0.00 | 76 | 1011.0 |
| 20260506181632 | 81 | 115 | 6.0 | 9.0 | 0.00 | 0.00 | 0.00 | 76 | 1011.0 |
| 20260506181126 | 80 | 82 | 2.0 | 9.0 | 0.00 | 0.00 | 0.00 | 76 | 1011.0 |
| 20260506180632 | 80 | 68 | 3.0 | 9.0 | 0.00 | 0.00 | 0.00 | 78 | 1011.1 |
| 20260506180143 | 80 | 105 | 3.0 | 8.0 | 0.00 | 0.00 | 0.00 | 79 | 1011.2 |
| 20260506175653 | 80 | 85 | 5.0 | 8.0 | 0.00 | 0.00 | 0.00 | 78 | 1011.2 |
| 20260506175134 | 79 | 29 | 1.0 | 6.0 | 0.00 | 0.00 | 0.00 | 81 | 1011.2 |
| 20260506174648 | 78 | 115 | 3.0 | 9.0 | 0.00 | 0.00 | 0.00 | 82 | 1011.2 |
| 20260506174213 | 77 | 102 | 4.0 | 10.0 | 0.00 | 0.00 | 0.00 | 82 | 1011.3 |
| 20260506173631 | 77 | 65 | 7.0 | 11.0 | 0.00 | 0.00 | 0.00 | 80 | 1011.4 |
| 20260506173142 | 78 | 5 | 4.0 | 11.0 | 0.00 | 0.00 | 0.00 | 81 | 1011.5 |
| 20260506172626 | 78 | 355 | 2.0 | 11.0 | 0.00 | 0.00 | 0.00 | 82 | 1011.7 |
| 20260506172156 | 78 | 52 | 5.0 | 10.0 | 0.00 | 0.00 | 0.00 | 82 | 1011.6 |
| 20260506171646 | 78 | 51 | 4.0 | 10.0 | 0.00 | 0.00 | 0.00 | 82 | 1011.7 |
| 20260506171155 | 78 | 31 | 4.0 | 10.0 | 0.00 | 0.00 | 0.00 | 83 | 1011.7 |
| 20260506170658 | 78 | 53 | 4.0 | 10.0 | 0.00 | 0.00 | 0.00 | 83 | 1011.7 |
| 20260506170148 | 78 | 65 | 5.0 | 9.0 | 0.00 | 0.00 | 0.00 | 83 | 1011.5 |
| 20260506165631 | 78 | 34 | 5.0 | 9.0 | 0.00 | 0.00 | 0.00 | 84 | 1011.6 |
| 20260506165141 | 78 | 42 | 3.0 | 9.0 | 0.00 | 0.00 | 0.00 | 84 | 1011.6 |
| 20260506164715 | 78 | 123 | 3.0 | 9.0 | 0.00 | 0.00 | 0.00 | 83 | 1011.7 |
| 20260506164130 | 78 | 54 | 5.0 | 9.0 | 0.00 | 0.00 | 0.00 | 83 | 1011.7 |
| 20260506163642 | 78 | 101 | 3.0 | 8.0 | 0.00 | 0.00 | 0.00 | 84 | 1011.7 |
| 20260506163155 | 78 | 61 | 5.0 | 8.0 | 0.00 | 0.00 | 0.00 | 84 | 1011.6 |
| 20260506162652 | 78 | 88 | 3.0 | 8.0 | 0.00 | 0.00 | 0.00 | 84 | 1011.7 |
| 20260506162139 | 78 | 63 | 5.0 | 7.0 | 0.00 | 0.00 | 0.00 | 85 | 1011.6 |
| 20260506161653 | 77 | 33 | 4.0 | 8.0 | 0.00 | 0.00 | 0.00 | 85 | 1011.7 |
| 20260506161134 | 77 | 107 | 4.0 | 8.0 | 0.00 | 0.00 | 0.00 | 85 | 1011.6 |
| 20260506160649 | 77 | 79 | 4.0 | 7.0 | 0.00 | 0.00 | 0.00 | 86 | 1011.7 |
| 20260506160211 | 77 | 108 | 2.0 | 6.0 | 0.00 | 0.00 | 0.00 | 88 | 1011.5 |
| 20260506155702 | 76 | 42 | 2.0 | 6.0 | 0.00 | 0.00 | 0.00 | 88 | 1011.6 |
| 20260506155144 | 76 | 65 | 1.0 | 7.0 | 0.00 | 0.00 | 0.00 | 88 | 1011.6 |
| 20260506154656 | 76 | 86 | 0.0 | 7.0 | 0.00 | 0.00 | 0.00 | 89 | 1011.5 |
| 20260506154206 | 76 | 58 | 0.0 | 5.0 | 0.00 | 0.00 | 0.00 | 90 | 1011.3 |
| 20260506153632 | 75 | 73 | 2.0 | 5.0 | 0.00 | 0.00 | 0.00 | 90 | 1011.3 |
| 20260506153144 | 75 | 73 | 1.0 | 5.0 | 0.00 | 0.00 | 0.00 | 90 | 1011.1 |
| 20260506152647 | 75 | 73 | 1.0 | 5.0 | 0.00 | 0.00 | 0.00 | 91 | 1011.1 |
| 20260506152138 | 75 | 133 | 0.0 | 4.0 | 0.00 | 0.00 | 0.00 | 91 | 1011.0 |
| 20260506151641 | 75 | 134 | 1.0 | 4.0 | 0.00 | 0.00 | 0.00 | 91 | 1011.0 |
| 20260506151132 | 75 | 86 | 1.0 | 3.0 | 0.00 | 0.00 | 0.00 | 91 | 1010.8 |
| 20260506150629 | 75 | 86 | 1.0 | 5.0 | 0.00 | 0.00 | 0.00 | 91 | 1010.8 |
| 20260506150142 | 75 | 85 | 2.0 | 5.0 | 0.00 | 0.00 | 0.00 | 91 | 1010.7 |
| 20260506145650 | 75 | 72 | 2.0 | 5.0 | 0.00 | 0.00 | 0.00 | 92 | 1010.6 |
| 20260506145129 | 75 | 134 | 1.0 | 4.0 | 0.00 | 0.00 | 0.00 | 92 | 1010.7 |
| 20260506144641 | 75 | 134 | 0.0 | 1.0 | 0.00 | 0.00 | 0.00 | 92 | 1010.8 |
| 20260506144142 | 75 | 134 | 0.0 | 1.0 | 0.00 | 0.00 | 0.00 | 92 | 1010.8 |
| 20260506143635 | 75 | 134 | 0.0 | 0.0 | 0.00 | 0.00 | 0.00 | 92 | 1010.8 |
| 20260506143138 | 74 | 134 | 0.0 | 0.0 | 0.00 | 0.00 | 0.00 | 92 | 1010.8 |
| 20260506142649 | 74 | 134 | 0.0 | 4.0 | 0.00 | 0.00 | 0.00 | 92 | 1010.7 |
| 20260506142159 | 75 | 134 | 1.0 | 4.0 | 0.00 | 0.00 | 0.00 | 92 | 1010.7 |
| 20260506141641 | 74 | 136 | 0.0 | 6.0 | 0.00 | 0.00 | 0.00 | 92 | 1010.7 |
| 20260506141143 | 74 | 137 | 3.0 | 6.0 | 0.00 | 0.00 | 0.00 | 92 | 1010.3 |
| 20260506140653 | 74 | 131 | 0.0 | 5.0 | 0.00 | 0.00 | 0.00 | 92 | 1010.3 |
| 20260506140135 | 74 | 132 | 4.0 | 6.0 | 0.00 | 0.00 | 0.00 | 92 | 1010.2 |
| 20260506135648 | 74 | 109 | 0.0 | 6.0 | 0.00 | 0.00 | 0.00 | 93 | 1010.1 |
| 20260506135216 | 74 | 86 | 2.0 | 5.0 | 0.00 | 0.00 | 0.00 | 93 | 1009.8 |
| 20260506134655 | 74 | 100 | 0.0 | 2.0 | 0.00 | 0.00 | 0.00 | 92 | 1009.8 |
| 20260506134127 | 74 | 132 | 0.0 | 7.0 | 0.00 | 0.00 | 0.00 | 92 | 1009.6 |
| 20260506133629 | 74 | 130 | 4.0 | 7.0 | 0.00 | 0.00 | 0.00 | 92 | 1009.6 |
| 20260506133139 | 74 | 114 | 3.0 | 5.0 | 0.00 | 0.00 | 0.00 | 92 | 1009.5 |
| 20260506132649 | 74 | 108 | 3.0 | 6.0 | 0.00 | 0.00 | 0.00 | 92 | 1009.6 |
| 20260506132219 | 74 | 103 | 3.0 | 6.0 | 0.00 | 0.00 | 0.00 | 93 | 1009.4 |
| 20260506131709 | 74 | 157 | 1.0 | 4.0 | 0.00 | 0.00 | 0.00 | 92 | 1009.5 |
| 20260506131151 | 74 | 126 | 2.0 | 11.0 | 0.00 | 0.00 | 0.00 | 92 | 1009.5 |
| 20260506130640 | 74 | 121 | 4.0 | 11.0 | 0.00 | 0.00 | 0.00 | 92 | 1009.2 |
| 20260506130150 | 74 | 172 | 4.0 | 8.0 | 0.00 | 0.00 | 0.00 | 92 | 1009.1 |
| 20260506125701 | 74 | 100 | 2.0 | 10.0 | 0.00 | 0.00 | 0.00 | 92 | 1009.1 |
| 20260506125149 | 74 | 124 | 6.0 | 10.0 | 0.00 | 0.00 | 0.00 | 92 | 1009.1 |
| 20260506124630 | 74 | 140 | 2.0 | 7.0 | 0.00 | 0.00 | 0.00 | 92 | 1009.1 |
| 20260506124201 | 74 | 133 | 4.0 | 7.0 | 0.00 | 0.00 | 0.00 | 92 | 1009.2 |
| 20260506123651 | 74 | 144 | 4.0 | 6.0 | 0.00 | 0.00 | 0.00 | 92 | 1009.1 |
| 20260506123133 | 74 | 156 | 2.0 | 6.0 | 0.00 | 0.00 | 0.00 | 92 | 1009.2 |
| 20260506122643 | 74 | 140 | 3.0 | 6.0 | 0.00 | 0.00 | 0.00 | 92 | 1009.2 |
| 20260506122132 | 74 | 138 | 3.0 | 4.0 | 0.00 | 0.00 | 0.00 | 92 | 1009.2 |
| 20260506121644 | 74 | 138 | 2.0 | 4.0 | 0.00 | 0.00 | 0.00 | 92 | 1009.2 |
| 20260506121145 | 74 | 136 | 0.0 | 6.0 | 0.00 | 0.00 | 0.00 | 92 | 1009.1 |
| 20260506120655 | 74 | 135 | 1.0 | 6.0 | 0.00 | 0.00 | 0.00 | 91 | 1009.2 |
| 20260506120138 | 74 | 112 | 1.0 | 5.0 | 0.00 | 0.00 | 0.00 | 91 | 1009.1 |
| 20260506115649 | 74 | 111 | 1.0 | 6.0 | 0.00 | 0.00 | 0.00 | 91 | 1009.1 |
| 20260506115220 | 74 | 150 | 2.0 | 6.0 | 0.00 | 0.00 | 0.00 | 91 | 1009.1 |
| 20260506114640 | 74 | 131 | 3.0 | 5.0 | 0.00 | 0.00 | 0.00 | 91 | 1009.0 |
| 20260506114205 | 74 | 167 | 2.0 | 5.0 | 0.00 | 0.00 | 0.00 | 91 | 1009.0 |
| 20260506113638 | 74 | 169 | 1.0 | 6.0 | 0.00 | 0.00 | 0.00 | 91 | 1009.0 |
| 20260506113140 | 74 | 178 | 0.0 | 4.0 | 0.00 | 0.00 | 0.00 | 91 | 1009.0 |
| 20260506112631 | 74 | 178 | 2.0 | 4.0 | 0.00 | 0.00 | 0.00 | 91 | 1009.0 |
| 20260506112132 | 74 | 178 | 1.0 | 6.0 | 0.00 | 0.00 | 0.00 | 91 | 1009.0 |
| 20260506111643 | 74 | 178 | 1.0 | 6.0 | 0.00 | 0.00 | 0.00 | 91 | 1009.0 |
| 20260506111155 | 74 | 163 | 2.0 | 8.0 | 0.00 | 0.00 | 0.00 | 91 | 1008.9 |
| 20260506110637 | 74 | 157 | 3.0 | 8.0 | 0.00 | 0.00 | 0.00 | 91 | 1008.9 |
| 20260506110146 | 74 | 171 | 2.0 | 6.0 | 0.00 | 0.00 | 0.00 | 91 | 1009.0 |
| 20260506105717 | 74 | 196 | 1.0 | 6.0 | 0.00 | 0.00 | 0.00 | 91 | 1009.1 |
| 20260506105137 | 75 | 194 | 2.0 | 6.0 | 0.00 | 0.00 | 0.00 | 91 | 1008.9 |
| 20260506104650 | 75 | 148 | 3.0 | 6.0 | 0.00 | 0.00 | 0.00 | 91 | 1008.9 |
| 20260506104132 | 74 | 140 | 3.0 | 6.0 | 0.00 | 0.00 | 0.00 | 91 | 1008.8 |
| 20260506103644 | 75 | 161 | 3.0 | 6.0 | 0.00 | 0.00 | 0.00 | 91 | 1008.8 |
| 20260506103155 | 74 | 197 | 1.0 | 6.0 | 0.00 | 0.00 | 0.00 | 91 | 1008.8 |
| 20260506102635 | 75 | 115 | 4.0 | 6.0 | 0.00 | 0.00 | 0.00 | 91 | 1008.9 |
| 20260506102147 | 75 | 171 | 2.0 | 8.0 | 0.00 | 0.00 | 0.00 | 91 | 1008.9 |
| 20260506101647 | 75 | 205 | 2.0 | 8.0 | 0.00 | 0.00 | 0.00 | 91 | 1008.9 |
| 20260506101140 | 75 | 173 | 2.0 | 6.0 | 0.00 | 0.00 | 0.00 | 91 | 1008.9 |
| 20260506100649 | 75 | 144 | 5.0 | 8.0 | 0.00 | 0.00 | 0.00 | 90 | 1009.0 |
| 20260506100131 | 75 | 207 | 1.0 | 6.0 | 0.00 | 0.00 | 0.00 | 90 | 1008.9 |
| 20260506095644 | 75 | 209 | 2.0 | 6.0 | 0.00 | 0.00 | 0.00 | 90 | 1008.9 |
| 20260506095146 | 75 | 191 | 2.0 | 7.0 | 0.00 | 0.00 | 0.00 | 90 | 1008.8 |
| 20260506094639 | 75 | 205 | 4.0 | 7.0 | 0.00 | 0.00 | 0.00 | 90 | 1008.7 |
| 20260506094141 | 75 | 188 | 2.0 | 11.0 | 0.00 | 0.00 | 0.00 | 90 | 1008.7 |
| 20260506093633 | 75 | 164 | 5.0 | 11.0 | 0.00 | 0.00 | 0.00 | 90 | 1008.8 |
| 20260506093201 | 75 | 189 | 6.0 | 12.0 | 0.00 | 0.00 | 0.00 | 90 | 1008.8 |
| 20260506092711 | 75 | 188 | 7.0 | 13.0 | 0.00 | 0.00 | 0.00 | 90 | 1008.7 |
| 20260506092158 | 75 | 148 | 7.0 | 13.0 | 0.00 | 0.00 | 0.00 | 90 | 1008.6 |
| 20260506091639 | 75 | 173 | 6.0 | 13.0 | 0.00 | 0.00 | 0.00 | 89 | 1008.5 |
| 20260506091149 | 75 | 138 | 6.0 | 12.0 | 0.00 | 0.00 | 0.00 | 89 | 1008.6 |
| 20260506090633 | 75 | 178 | 6.0 | 14.0 | 0.00 | 0.00 | 0.00 | 89 | 1008.5 |
| 20260506090143 | 75 | 165 | 7.0 | 14.0 | 0.00 | 0.00 | 0.00 | 89 | 1008.5 |
| 20260506085640 | 75 | 175 | 8.0 | 15.0 | 0.00 | 0.00 | 0.00 | 89 | 1008.5 |
| 20260506085130 | 75 | 157 | 5.0 | 13.0 | 0.00 | 0.00 | 0.00 | 89 | 1008.6 |
| 20260506084634 | 75 | 172 | 8.0 | 14.0 | 0.00 | 0.00 | 0.00 | 89 | 1008.6 |
| 20260506084144 | 75 | 137 | 8.0 | 14.0 | 0.00 | 0.00 | 0.00 | 89 | 1008.6 |
| 20260506083656 | 75 | 171 | 7.0 | 12.0 | 0.00 | 0.00 | 0.00 | 90 | 1008.6 |
| 20260506083131 | 75 | 190 | 4.0 | 11.0 | 0.00 | 0.00 | 0.00 | 90 | 1008.6 |
| 20260506082642 | 75 | 175 | 6.0 | 11.0 | 0.00 | 0.00 | 0.00 | 90 | 1008.7 |
| 20260506082145 | 75 | 163 | 6.0 | 11.0 | 0.00 | 0.00 | 0.00 | 90 | 1008.7 |
| 20260506081636 | 75 | 217 | 7.0 | 18.0 | 0.00 | 0.00 | 0.00 | 90 | 1008.7 |
| 20260506081141 | 75 | 204 | 7.0 | 18.0 | 0.00 | 0.00 | 0.00 | 90 | 1008.6 |
| 20260506080633 | 75 | 167 | 8.0 | 16.0 | 0.00 | 0.00 | 0.00 | 90 | 1008.6 |
| 20260506080203 | 75 | 163 | 6.0 | 14.0 | 0.00 | 0.00 | 0.00 | 90 | 1008.7 |
| 20260506073139 | 75 | 131 | 4.0 | 10.0 | 0.00 | 0.00 | 0.00 | 91 | 1008.8 |
| 20260506072648 | 75 | 121 | 6.0 | 13.0 | 0.00 | 0.00 | 0.00 | 91 | 1008.9 |
| 20260506072127 | 75 | 162 | 8.0 | 13.0 | 0.00 | 0.00 | 0.00 | 91 | 1008.9 |
| 20260506071638 | 75 | 140 | 5.0 | 11.0 | 0.00 | 0.00 | 0.00 | 90 | 1009.0 |
| 20260506071150 | 75 | 142 | 6.0 | 12.0 | 0.00 | 0.00 | 0.00 | 90 | 1009.0 |
| 20260506070631 | 75 | 162 | 6.0 | 12.0 | 0.00 | 0.00 | 0.00 | 90 | 1009.1 |
| 20260506070143 | 75 | 119 | 5.0 | 10.0 | 0.00 | 0.00 | 0.00 | 90 | 1009.2 |
| 20260506062210 | 75 | 217 | 7.0 | 12.0 | 0.00 | 0.00 | 0.00 | 90 | 1009.4 |
| 20260506061628 | 75 | 158 | 6.0 | 15.0 | 0.00 | 0.00 | 0.00 | 90 | 1009.4 |
| 20260506061136 | 75 | 158 | 8.0 | 15.0 | 0.00 | 0.00 | 0.00 | 90 | 1009.4 |
| 20260506060645 | 75 | 171 | 6.0 | 14.0 | 0.00 | 0.00 | 0.00 | 90 | 1009.5 |
| 20260506060148 | 75 | 155 | 7.0 | 13.0 | 0.00 | 0.00 | 0.00 | 89 | 1009.4 |
| 20260506051147 | 76 | 148 | 7.0 | 14.0 | 0.00 | 0.00 | 0.00 | 89 | 1009.4 |
| 20260506050627 | 76 | 132 | 7.0 | 12.0 | 0.00 | 0.00 | 0.00 | 89 | 1009.4 |
| 20260506050133 | 76 | 113 | 8.0 | 14.0 | 0.00 | 0.00 | 0.00 | 89 | 1009.2 |
| 20260506044719 | 76 | 135 | 7.0 | 15.0 | 0.00 | 0.00 | 0.00 | 89 | 1009.1 |
| 20260506044139 | 76 | 143 | 8.0 | 12.0 | 0.00 | 0.00 | 0.00 | 89 | 1009.1 |
| 20260506043653 | 76 | 101 | 6.0 | 11.0 | 0.00 | 0.00 | 0.00 | 89 | 1009.1 |
| 20260506043137 | 76 | 106 | 6.0 | 11.0 | 0.00 | 0.00 | 0.00 | 89 | 1009.0 |
| 20260506042628 | 76 | 137 | 6.0 | 11.0 | 0.00 | 0.00 | 0.00 | 89 | 1009.1 |
| 20260506042132 | 76 | 146 | 6.0 | 13.0 | 0.00 | 0.00 | 0.00 | 88 | 1009.1 |
| 20260506041642 | 76 | 157 | 4.0 | 12.0 | 0.00 | 0.00 | 0.00 | 88 | 1009.0 |
| 20260506041134 | 76 | 98 | 9.0 | 13.0 | 0.00 | 0.00 | 0.00 | 88 | 1008.9 |
| 20260506040636 | 77 | 130 | 6.0 | 13.0 | 0.00 | 0.00 | 0.00 | 88 | 1009.0 |
| 20260506040215 | 77 | 139 | 6.0 | 13.0 | 0.00 | 0.00 | 0.00 | 88 | 1008.8 |
| 20260506035658 | 77 | 127 | 8.0 | 15.0 | 0.00 | 0.00 | 0.00 | 87 | 1008.6 |
| 20260506035203 | 77 | 164 | 9.0 | 14.0 | 0.00 | 0.00 | 0.00 | 87 | 1008.7 |
| 20260506034654 | 77 | 140 | 6.0 | 14.0 | 0.00 | 0.00 | 0.00 | 87 | 1008.7 |
| 20260506034203 | 77 | 168 | 7.0 | 14.0 | 0.00 | 0.00 | 0.00 | 87 | 1008.6 |
| 20260506033653 | 77 | 144 | 6.0 | 15.0 | 0.00 | 0.00 | 0.00 | 87 | 1008.5 |
| 20260506033155 | 77 | 113 | 6.0 | 11.0 | 0.00 | 0.00 | 0.00 | 87 | 1008.6 |
| 20260506032705 | 77 | 140 | 5.0 | 10.0 | 0.00 | 0.00 | 0.00 | 86 | 1008.4 |